Location: Northcutt
(34.7304°N, 84.4305°W)
Time: 13:10:45
(UTC+00:00)

S-56A Canister/Altair - Visible Passes

Search period start: 05 October 2022 00:00
Search period end: 15 October 2022 00:00
Orbit: 637 x 2496 km, 38.9° (Epoch: 04 October)

Date Brightness Start Highest point End Pass type
(mag) Time Alt. Az. Time Alt. Az. Time Alt. Az.
05 Oct 8.9 08:25:08 64° NNE 08:25:08 64° NNE 08:31:30 10° E visible
05 Oct 8.2 10:22:34 17° WNW 10:29:22 86° NNE 10:35:09 10° ESE visible
06 Oct 9.6 07:54:14 44° ENE 07:54:14 44° ENE 07:59:00 10° ENE visible
06 Oct 8.4 09:51:39 29° WNW 09:56:34 81° NNE 10:02:46 10° ESE visible
07 Oct 11.4 02:52:51 10° SSW 02:54:28 14° SSW 02:54:28 14° SSW visible
07 Oct 10.2 07:23:22 28° ENE 07:23:22 28° ENE 07:26:27 10° ENE visible
07 Oct 8.6 09:20:48 47° WNW 09:23:42 77° NNE 09:30:21 10° E visible
08 Oct 11.1 02:19:56 10° SSW 02:24:14 20° S 02:24:14 20° S visible
08 Oct 10.8 06:52:33 17° ENE 06:52:33 17° ENE 06:53:53 10° ENE visible
08 Oct 8.7 08:50:00 71° NNW 08:50:44 75° N 08:57:54 10° E visible
08 Oct 8.5 10:47:26 12° WNW 10:55:13 52° SW 11:00:49 10° SE visible
09 Oct 10.8 01:47:12 10° S 01:54:01 24° SSE 01:54:01 24° SSE visible
09 Oct 11.5 03:49:59 10° SW 03:51:31 14° SW 03:51:31 14° SW visible
09 Oct 9.1 08:19:15 62° ENE 08:19:15 62° ENE 08:25:24 10° E visible
09 Oct 8.4 10:16:41 22° WNW 10:22:34 61° SSW 10:28:37 10° SE visible
10 Oct 10.7 01:14:40 10° S 01:23:50 25° SE 01:23:50 25° SE visible
10 Oct 11.0 03:16:34 10° SW 03:21:19 25° SW 03:21:19 25° SW visible
10 Oct 9.8 07:48:33 39° E 07:48:33 39° E 07:52:51 10° E visible
10 Oct 8.5 09:46:01 38° W 09:49:49 70° SSW 09:56:20 10° SE visible
11 Oct 10.7 00:42:20 10° S 00:52:30 23° SE 00:53:39 22° SE visible
11 Oct 10.6 02:43:17 10° SW 02:51:07 36° SSW 02:51:07 36° SSW visible
11 Oct 10.5 07:17:56 22° E 07:17:56 22° E 07:20:16 10° E visible
11 Oct 8.6 09:15:24 64° W 09:16:59 78° SSW 09:24:00 10° ESE visible
11 Oct 9.5 11:14:06 10° W 11:20:13 23° SW 11:24:54 10° S visible
12 Oct 10.9 00:10:19 10° SSE 00:19:16 19° SE 00:23:26 17° ESE visible
12 Oct 10.2 02:10:07 10° SW 02:20:55 47° S 02:20:55 47° S visible
12 Oct 11.4 04:15:42 10° WSW 04:18:24 18° WSW 04:18:24 18° WSW visible
12 Oct 11.1 06:47:24 11° E 06:47:24 11° E 06:47:36 10° E visible
12 Oct 8.8 08:44:52 76° SE 08:44:52 76° SE 08:51:37 10° ESE visible
12 Oct 9.3 10:42:19 16° W 10:47:42 29° SW 10:53:08 10° SSE visible
12 Oct 11.1 23:38:44 10° SSE 23:46:04 16° SE 23:53:11 11° E visible
13 Oct 10.1 01:37:05 10° SSW 01:50:39 49° SE 01:50:39 49° SE visible
13 Oct 10.9 03:42:02 10° WSW 03:48:08 31° WSW 03:48:08 31° WSW visible
13 Oct 9.5 08:14:24 45° ESE 08:14:24 45° ESE 08:19:09 10° ESE visible
13 Oct 9.2 10:11:52 28° W 10:15:07 35° SW 10:21:12 10° SSE visible
14 Oct 10.1 01:04:12 10° SSW 01:17:28 44° SE 01:20:20 41° ESE visible
14 Oct 10.4 03:08:30 10° WSW 03:17:48 47° WSW 03:17:48 47° WSW visible
14 Oct 10.3 07:44:00 25° ESE 07:44:00 25° ESE 07:46:37 10° ESE visible
14 Oct 9.1 09:41:28 41° SW 09:42:27 43° SW 09:49:09 10° SSE visible
